This is the latest recevied weather packets stored in our database for station/object 9A7DI-13. If no packets are shown the sender has not sent any weather packets the latest 10 day(s).
| Time | Temp. | Humidity | Pressure | Rain* | Wind** | Luminosity | Snow |
|---|---|---|---|---|---|---|---|
| 1788571600 | 16.67° C | 78% | 1023.5 hPa | - | - | - | - |
| 1788571000 | 16.67° C | 77% | 1023.5 hPa | - | - | - | - |
| 1788570400 | 16.67° C | 77% | 1023.5 hPa | - | - | - | - |
| 1788569800 | 17.22° C | 76% | 1023.5 hPa | - | - | - | - |
| 1788569200 | 17.22° C | 76% | 1023.5 hPa | - | - | - | - |
| 1788568600 | 17.22° C | 75% | 1023.6 hPa | - | - | - | - |
| 1788568000 | 17.22° C | 75% | 1023.6 hPa | - | - | - | - |
| 1788567400 | 16.67° C | 78% | 1023.6 hPa | - | - | - | - |
| 1788566800 | 17.22° C | 77% | 1023.6 hPa | - | - | - | - |
| 1788566200 | 16.67° C | 78% | 1023.7 hPa | - | - | - | - |
| 1788565600 | 17.22° C | 75% | 1023.8 hPa | - | - | - | - |
| 1788565000 | 17.22° C | 76% | 1023.8 hPa | - | - | - | - |
| 1788564400 | 17.78° C | 74% | 1023.9 hPa | - | - | - | - |
| 1788563800 | 17.78° C | 74% | 1023.8 hPa | - | - | - | - |
| 1788563201 | 17.78° C | 73% | 1023.8 hPa | - | - | - | - |
| 1788562600 | 17.78° C | 73% | 1023.9 hPa | - | - | - | - |
| 1788562000 | 18.33° C | 70% | 1024 hPa | - | - | - | - |
| 1788561400 | 18.33° C | 71% | 1024 hPa | - | - | - | - |
| 1788560800 | 18.89° C | 67% | 1024 hPa | - | - | - | - |
| 1788560200 | 19.44° C | 66% | 1024 hPa | - | - | - | - |
| 1788559601 | 20.56° C | 59% | 1023.8 hPa | - | - | - | - |
| 1788559000 | 19.44° C | 66% | 1023.9 hPa | - | - | - | - |
| 1788558400 | 20° C | 65% | 1023.9 hPa | - | - | - | - |
| 1788557801 | 19.44° C | 68% | 1023.9 hPa | - | - | - | - |
| 1788557201 | 19.44° C | 66% | 1024 hPa | - | - | - | - |
* Rain since midnight (hover to see other rain measurements)
** Current wind speed in m/s (hover to see current wind gust speed)